Regional Weather Roundup
Issued by NWS Huntsville, AL

Home | Current Version | Previous Version | Text Only | Print | Product List | Glossary On
Versions: 1 2 3 4 5 6 7 8 9 10 11 12 13 14 15 16 17 18 19 20 21 22 23 24 25 26 27
000
ASUS44 KHUN 222110
RWRHUN

WEATHER ROUNDUP FOR THE TENNESSEE VALLEY
NATIONAL WEATHER SERVICE HUNTSVILLE AL
400 PM CDT MON MAY 22 2017

ALZ001>004-222200-
NORTHWEST ALABAMA

CITY           SKY/WX    TMP DP  RH WIND       PRES   REMARKS
COURTLAND HCN    N/A     73 N/A N/A NE5         N/A
RUSSELLVILLE     N/A     73 N/A N/A MISG        N/A
SHOALS AIRPORT PTSUNNY   77  57  50 VRB3      30.00F
SHOALS TVA RES   N/A     75 N/A N/A MISG        N/A
$$

ALZ005>007-016-222200-
NORTH CENTRAL ALABAMA

CITY           SKY/WX    TMP DP  RH WIND       PRES   REMARKS
CULLMAN AG STN   N/A     75 N/A N/A CALM        N/A
DECATUR AP     CLOUDY    78  61  55 N3        29.99F
HUNTSVILLE AP  CLOUDY    79  62  56 NE5       29.98F
MERIDIANVILLE  PTSUNNY   77  55  47 N5        29.99S
REDSTONE ARSN  CLOUDY    77  61  57 E5        29.97F
VINEMONT AP    FAIR      75  63  67 N3        30.01F
$$

ALZ008>010-222200-
NORTHEAST ALABAMA

CITY           SKY/WX    TMP DP  RH WIND       PRES   REMARKS
ALBERTVILLE    CLOUDY    73  72  94 NW3       29.97F
FORT PAYNE       N/A     77  61  57 NE3       29.98F
SCOTTSBORO AP  CLOUDY    77  59  53 N3        29.98F
SCOTTSBORO HCN   N/A     77 N/A N/A MISG        N/A
VALLEY HEAD      N/A     75 N/A N/A MISG        N/A
$$

TNZ076-096-097-222200-
SOUTHEASTERN MIDDLE TENNESSEE

CITY           SKY/WX    TMP DP  RH WIND       PRES   REMARKS
TULLAHOMA      SUNNY     72  55  56 N7        30.01F
WINCHESTER     SUNNY     75  57  53 N6        29.99F
$$

...SURROUNDING SITES...

CITY           SKY/WX    TMP DP  RH WIND       PRES   REMARKS
ATLANTA        LGT RAIN  70  68  93 NW6       29.99F
ANNISTON       CLOUDY    76  70  82 N6        29.97F
BIRMINGHAM     LGT RAIN  75  70  84 E6        29.99F
CHATTANOOGA    CLOUDY    80  62  54 E7        29.98F
CORINTH        FAIR      75  57  53 N7        29.98F
DALTON         CLOUDY    73  66  78 NW3       29.98F
GADSDEN        CLOUDY    71  69  93 CALM      29.98F
GOLDEN TRNGL   CLOUDY    73  63  68 NE5       29.94F
HALEYVILLE     FAIR      75  63  66 N3        30.01F
JACKSON TN     CLOUDY    74  53  48 MISG      30.01F
MEMPHIS        CLOUDY    73  53  49 NE8       29.99F
NASHVILLE      CLOUDY    74  50  42 E5        30.02F
OXFORD MS      FAIR      70  59  68 NW3       30.00F
ROME           CLOUDY    76  68  76 CALM      29.98F
SAVANNAH       SUNNY     75  57  53 N6        30.00F
SELMER         SUNNY     72  55  56 CALM      30.00F
TUPELO         CLOUDY    74  59  59 N6        29.97F
TUSCALOOSA     CLOUDY    77  68  73 NE5       29.95F
$$

...GULF COAST WEATHER...

CITY           SKY/WX    TMP DP  RH WIND       PRES   REMARKS
GULFPORT       LGT RAIN  73  70  90 CALM      29.97F
PASCAGOULA     LGT RAIN  75  69  81 CALM      29.98F
MOBILE         CLOUDY    78  69  73 W5        29.99F
GULF SHORES    CLOUDY    78  73  84 S12       29.97S
PENSACOLA      CLOUDY    80  71  74 SW8       29.96F
DESTIN         CLOUDY    83  77  82 S7        29.96S HX  92
PANAMA CITY    PTSUNNY   82  73  75 SW9       29.98S
APPALACHICOLA  CLOUDY    82  76  81 SW12      29.97F
$$





USA.gov is the U.S. government's official web portal to all federal, state and local government web resources and services.